Temperature
20 21 21 21 22 22 22 22 22 21 21 21 21 21 21 20 20 20 21 21 20 20 19 18 18 18 18 18 18 17 17 17 17 16 16 16 16 15 15 15 15 15 14 14
21 21 21 21 21 22 22 22 21 21 21 22 21 21 21 21 21 20 21 21 20 20 19 18 18 18 18 18 18 17 17 17 17 16 16 16 16 15 15 15 15 15 15 15
22 21 21 21 21 21 22 22 22 21 21 22 22 22 22 21 20 20 20 20 20 20 20 19 18 18 18 18 18 18 17 17 17 16 16 16 16 15 15 15 15 15 15 15
22 21 21 21 21 22 21 22 22 22 22 22 23 22 23 23 22 21 20 20 20 19 19 19 18 18 18 18 18 17 17 17 17 16 16 16 16 15 15 15 15 14 14 14
21 21 22 22 22 22 22 22 22 22 23 23 23 23 24 23 22 22 21 20 20 19 19 18 18 18 18 18 18 17 17 17 17 16 16 16 16 15 15 15 15 14 14 14
21 21 22 22 22 22 22 22 22 23 23 22 23 23 24 24 24 24 22 21 20 19 18 18 18 18 18 18 18 17 17 17 17 17 16 16 15 15 15 15 15 14 14 14
21 21 21 22 22 22 22 23 22 22 22 23 23 23 24 25 24 24 23 21 20 19 18 18 17 17 17 18 17 17 17 17 17 16 16 16 15 15 15 15 14 14 14 14
22 21 22 22 23 23 23 23 23 22 22 23 23 23 25 24 22 22 22 21 20 19 18 18 17 17 18 17 17 17 17 17 16 16 15 15 15 15 15 15 14 14 14 14
23 22 22 22 23 23 23 23 24 24 23 23 24 24 24 23 22 21 21 20 19 19 18 18 17 17 17 17 17 17 17 16 16 16 15 15 15 15 15 14 14 14 14 14
23 22 22 22 22 22 24 24 23 23 22 23 23 24 25 24 23 22 21 20 19 19 18 17 17 17 17 17 17 17 16 16 16 16 15 15 15 15 15 14 14 14 13 13
23 23 22 22 23 23 23 23 23 24 24 23 23 24 26 25 24 23 22 21 20 19 18 17 17 17 17 17 17 16 16 16 16 16 15 15 15 15 14 14 14 14 13 13
23 24 23 23 23 23 24 24 24 23 23 24 24 25 25 24 24 23 22 21 20 19 18 17 17 17 17 17 16 16 16 16 16 15 15 15 15 14 14 14 13 13 13 13
23 24 23 23 23 23 23 23 23 24 24 24 24 25 25 24 23 22 22 21 20 18 17 17 16 16 16 16 16 16 16 15 15 15 15 14 14 14 14 13 13 13 13 12
22 24 24 23 24 24 23 23 23 23 24 24 24 25 25 25 24 23 21 20 19 18 17 17 16 16 16 16 16 16 15 15 15 15 15 14 14 14 14 13 13 13 12 12
23 24 24 24 24 24 24 23 23 23 24 24 25 25 25 26 25 23 21 20 19 18 17 17 16 16 16 16 16 16 15 15 15 15 14 14 14 13 13 13 13 12 12 12
23 24 24 24 23 23 23 23 23 23 24 24 24 25 26 25 23 22 21 20 19 18 18 17 17 16 16 16 16 16 15 15 15 14 14 14 14 13 13 13 12 12 12 12
23 24 23 24 23 23 23 24 24 24 24 24 24 25 25 24 23 22 21 20 19 19 18 17 17 17 16 16 16 16 15 15 14 14 14 14 13 13 13 12 12 12 12 11
23 23 23 23 23 22 25 24 24 24 24 24 24 25 24 23 22 21 21 20 19 19 18 18 17 17 17 16 16 15 15 15 14 14 14 13 13 13 12 12 12 11 11 11
22 23 23 23 23 23 24 24 23 23 24 24 24 24 22 21 21 21 20 19 19 19 18 18 17 17 17 16 16 15 15 14 14 14 13 13 13 12 12 12 11 11 11 11
20 22 22 22 22 22 24 23 22 23 23 23 23 22 21 20 23 23 20 19 19 18 18 18 17 17 17 16 16 15 14 14 14 14 13 13 12 12 12 11 11 11 10 10
21 21 21 22 22 23 23 21 21 23 24 22 21 21 20 22 23 21 19 19 18 18 18 18 17 17 17 16 15 15 14 14 14 14 13 12 12 12 11 11 11 10 10 10
22 22 22 22 21 22 21 21 22 23 22 21 20 20 20 20 19 19 19 18 18 18 18 18 17 17 16 16 15 15 14 14 14 13 13 12 12 11 11 11 10 10 10 9
22 22 22 22 23 21 19 20 20 19 20 20 20 19 19 18 18 18 18 17 17 17 17 17 17 16 16 16 15 15 14 14 13 13 13 12 11 11 11 10 10 10 9 9
21 19 20 21 22 20 18 18 18 18 18 18 18 18 18 18 18 17 17 17 17 17 17 17 16 16 16 15 15 15 14 14 13 13 12 12 11 11 10 10 10 9 9 9
20 19 20 21 21 19 18 18 17 17 17 17 17 17 17 17 17 17 17 17 16 16 16 16 16 16 15 15 15 14 14 13 13 12 12 11 11 10 10 10 10 9 9 9
19 19 20 21 20 20 19 17 17 17 17 17 17 17 17 17 16 16 16 16 16 16 16 16 15 15 15 14 14 14 13 13 12 12 11 11 10 10 10 10 9 9 9 9
Wind_Speed
3 5 6 7 5 6 9 9 8 5 3 5 7 6 5 6 8 8 8 8 8 7 6 6 6 6 6 6 5 5 4 4 3 2 2 2 2 2 3 4 5 5 6 6
6 6 6 6 6 8 8 9 8 6 5 4 6 5 5 6 8 8 8 9 9 8 8 7 7 6 6 5 4 4 4 3 2 2 1 1 2 2 3 3 4 5 6 6
6 6 7 7 8 8 7 7 7 7 6 5 5 5 7 7 8 8 8 8 8 9 9 8 8 7 6 5 5 4 4 4 3 2 2 1 1 1 2 3 3 4 5 5
5 6 8 7 7 7 6 5 6 8 7 4 5 4 7 9 10 10 10 10 10 9 9 8 8 8 7 6 5 5 4 4 3 3 2 2 1 2 3 3 3 3 4 5
4 6 8 7 5 5 4 6 6 5 4 4 5 4 5 9 11 13 13 12 11 10 10 9 9 8 7 6 5 5 5 4 3 3 2 1 2 2 2 2 3 3 4 5
4 3 2 3 4 6 9 8 6 4 4 4 4 5 4 8 10 12 13 13 13 12 11 10 9 8 7 7 6 5 5 4 3 3 2 2 2 2 3 3 4 3 3 4
6 5 4 5 8 8 8 8 4 5 4 3 3 5 4 4 6 9 12 14 13 13 12 11 11 10 8 8 7 6 6 5 4 3 3 2 2 2 2 3 3 4 4 4
6 6 6 6 5 7 8 7 3 2 3 2 4 5 2 3 4 6 9 11 13 13 12 12 11 10 9 9 8 7 6 5 4 3 3 2 2 1 2 2 3 3 4 4
4 4 4 5 4 5 7 6 3 2 2 3 4 3 3 5 6 8 10 12 13 13 13 12 11 10 10 9 8 7 7 6 5 4 3 2 2 1 2 2 2 3 3 4
3 4 6 5 5 2 4 4 4 4 3 3 3 5 4 7 9 11 12 13 14 14 13 13 12 11 10 9 8 8 7 6 5 4 3 2 1 1 1 1 2 3 3 4
4 4 6 7 8 9 7 6 5 4 5 4 2 1 1 4 7 11 12 13 14 15 14 13 12 11 10 9 9 8 7 6 5 4 4 3 2 1 1 1 2 2 2 3
5 3 5 6 3 4 8 9 9 7 5 5 5 3 3 3 5 8 10 12 14 14 14 13 13 12 11 10 10 9 8 7 6 5 4 3 3 2 1 1 1 2 2 3
6 4 5 5 5 6 7 9 10 8 7 7 8 4 4 3 5 7 9 11 12 14 14 13 13 12 12 11 10 9 8 7 6 5 5 4 3 2 1 0 1 1 2 3
4 5 6 4 2 5 8 10 11 11 9 10 11 11 8 7 7 8 9 11 12 14 14 14 14 13 12 11 10 9 8 8 7 6 5 4 3 2 1 0 1 1 2 3
5 6 7 7 4 5 9 10 13 15 14 13 12 11 11 9 7 7 9 11 13 14 15 16 15 14 13 12 11 10 9 8 8 7 6 4 3 2 2 1 1 1 2 3
5 6 6 7 5 7 10 12 14 15 15 15 15 15 11 8 6 7 10 12 14 15 16 16 16 15 15 14 13 11 10 9 8 7 6 4 3 3 2 2 1 1 2 3
6 6 6 7 3 6 10 12 14 13 13 13 14 13 7 7 8 9 10 13 14 15 15 16 16 16 15 14 13 12 11 9 9 7 6 5 5 4 3 2 1 2 2 2
7 8 6 6 6 10 4 1 5 10 12 13 12 10 8 7 6 7 8 11 13 13 14 14 14 14 14 13 13 12 11 10 9 8 7 6 5 5 3 3 2 3 3 2
6 7 6 7 9 10 7 4 5 6 8 7 10 8 5 3 4 6 7 9 11 11 11 12 13 13 13 13 13 12 12 11 10 9 8 7 7 5 4 4 3 3 3 3
4 7 8 8 9 8 4 1 2 4 5 1 4 4 4 5 5 3 4 7 8 8 9 10 11 12 13 13 13 13 12 12 11 10 8 8 7 6 6 5 4 3 4 4
6 7 10 12 11 8 2 3 5 5 2 2 1 3 5 6 3 0 4 5 6 8 9 9 11 11 12 13 13 13 13 12 11 9 8 8 7 7 6 5 5 5 4 5
8 7 8 8 9 7 3 5 4 3 4 1 1 2 4 4 1 1 3 5 6 7 8 10 10 10 10 12 13 13 13 11 9 9 9 8 8 7 6 6 6 6 5 6
7 6 4 6 4 2 3 3 3 4 3 3 2 2 3 3 2 2 3 4 5 6 7 8 9 9 10 11 12 13 11 10 10 9 9 8 8 7 7 7 7 6 6 6
5 3 4 6 6 3 3 4 4 3 4 3 2 2 2 3 3 2 3 3 4 5 6 7 9 9 9 10 11 11 10 10 10 10 9 9 9 8 8 7 7 7 7 7
3 5 5 7 6 4 3 3 3 3 2 2 1 0 2 2 3 3 3 3 4 4 5 6 8 8 9 9 10 10 10 10 11 10 9 9 9 8 8 8 7 8 8 7
4 6 6 6 4 5 4 3 3 2 2 1 0 0 1 2 2 2 2 2 3 4 5 6 7 7 8 8 9 9 10 10 11 10 9 8 8 7 8 8 8 8 10 8
Wind_Direction
139 153 148 145 144 145 153 156 145 130 129 140 151 157 176 173 179 181 178 171 164 155 150 150 148 146 147 143 134 128 130 125 126 117 104 88 78 63 58 46 35 25 20 16
141 135 130 126 126 143 153 154 143 135 139 154 164 175 183 187 191 192 188 179 173 167 163 155 156 152 150 145 144 141 134 129 121 105 91 80 64 55 50 39 36 24 19 15
139 130 144 147 143 149 164 172 156 145 143 162 172 192 199 192 193 195 200 198 187 181 175 165 162 157 155 150 147 145 138 132 126 128 124 120 117 121 78 49 34 21 17 17
117 141 160 159 157 168 166 173 164 164 174 169 204 200 194 191 194 198 199 200 196 186 180 171 167 163 160 154 152 148 141 131 123 128 120 93 56 46 35 18 22 17 22 18
127 156 171 171 171 182 140 148 158 178 190 190 207 229 184 184 204 203 199 199 197 189 182 175 172 166 161 154 154 149 139 129 121 115 104 95 71 57 47 30 25 14 26 18
115 143 164 143 130 146 142 144 149 186 216 221 214 234 209 194 207 198 194 194 193 187 181 176 172 167 161 156 155 152 147 134 128 126 117 96 79 59 46 32 23 16 25 20
138 140 140 147 137 151 179 176 178 194 210 205 170 236 234 186 195 200 193 190 187 183 180 177 174 173 168 164 162 161 156 147 144 141 127 108 94 70 45 27 30 18 24 25
163 158 173 185 190 179 194 221 232 211 206 179 191 231 210 144 180 198 195 187 182 181 181 179 177 175 170 168 167 167 160 155 153 155 142 123 111 77 50 31 22 22 19 19
173 148 161 189 200 193 191 220 281 288 261 248 211 227 239 187 195 190 185 184 184 182 181 179 176 176 173 172 172 170 167 163 162 163 156 142 113 84 58 35 24 23 21 16
184 162 168 168 172 193 247 204 204 229 235 236 225 236 221 191 198 192 190 190 187 183 182 179 178 177 175 172 170 171 173 168 164 166 162 143 136 113 70 28 28 23 21 19
208 187 165 181 206 200 187 202 221 236 258 266 255 222 158 204 194 195 195 193 187 184 182 180 178 175 173 171 172 173 175 172 165 164 160 159 150 140 126 61 31 13 9 10
206 222 193 194 189 249 225 225 220 234 234 247 272 274 120 199 203 203 198 192 187 185 182 180 177 174 174 175 176 177 177 173 167 164 162 157 148 154 144 75 26 4 5 1
181 213 194 183 189 195 218 224 227 243 256 250 254 251 145 192 209 208 203 193 186 184 182 180 179 180 179 178 178 178 178 174 168 168 169 170 168 165 160 52 14 353 354 351
213 233 243 241 245 196 212 215 219 227 242 248 249 260 259 247 236 219 205 195 188 186 184 183 184 185 183 182 181 179 179 176 174 174 181 185 183 181 202 235 326 334 337 332
223 250 249 264 268 238 238 230 220 229 247 258 264 259 264 265 248 224 203 192 188 189 189 190 189 187 185 185 184 182 180 179 180 182 189 192 192 194 207 212 270 318 329 323
222 249 250 249 241 240 250 246 236 237 245 251 260 264 264 263 238 214 202 194 195 196 196 194 193 191 191 189 187 184 183 182 183 186 189 184 191 190 202 222 257 303 315 323
207 235 252 260 234 247 254 245 236 233 232 239 249 258 255 245 231 221 208 202 202 201 198 196 195 194 194 192 188 186 185 180 184 188 188 187 191 193 205 216 233 262 282 311
218 228 248 267 254 256 274 100 236 241 247 243 253 263 258 257 249 234 218 207 205 201 198 197 195 193 193 189 186 184 182 184 188 192 193 193 195 197 202 214 234 255 278 295
235 226 241 254 260 267 268 238 214 232 256 252 247 255 253 244 222 223 212 211 208 201 198 194 192 188 187 186 184 183 185 188 192 196 198 196 198 200 204 215 231 249 271 282
199 223 241 244 255 262 279 124 187 231 252 277 248 241 212 192 222 222 183 201 202 194 188 184 182 183 184 184 183 188 191 193 197 198 200 200 202 204 210 220 231 242 257 270
193 210 230 242 251 260 311 131 177 225 298 39 242 219 194 209 259 12 162 179 183 179 177 177 180 183 185 182 184 193 196 200 199 197 199 202 206 212 216 223 231 242 253 266
224 218 223 228 238 249 112 156 206 312 5 9 287 238 217 235 303 124 161 168 171 172 174 178 181 184 184 185 189 197 201 200 194 194 199 206 210 214 217 223 234 244 252 260
224 232 233 226 242 25 161 227 305 327 321 328 305 275 231 226 211 171 167 168 173 174 176 180 183 183 186 190 196 202 199 192 192 196 204 210 214 217 222 226 232 241 249 259
211 218 230 244 255 263 260 266 281 291 304 319 312 280 215 208 199 183 176 174 176 180 179 180 184 189 192 194 201 206 197 193 198 204 209 213 217 221 225 231 237 241 248 256
233 196 225 247 265 276 245 260 286 298 309 323 350 317 194 186 189 184 181 182 181 179 180 185 193 197 198 196 201 204 201 199 206 211 215 219 223 227 232 234 241 246 249 255
214 217 237 255 272 266 276 302 305 276 273 271 257 252 205 182 178 174 172 173 177 181 184 189 196 201 203 200 203 203 204 206 212 218 220 223 226 229 234 241 245 241 249 247
Height
1525 1525 1526 1527 1527 1528 1530 1533 1538 1542 1543 1543 1545 1547 1549 1551 1552 1553 1555 1556 1558 1561 1563 1564 1565 1567 1568 1569 1570 1570 1570 1570 1570 1570 1570 1570 1569 1568 1567 1566 1564 1563 1562 1560
1526 1528 1528 1529 1530 1530 1532 1536 1539 1543 1543 1543 1545 1546 1547 1549 1550 1552 1553 1555 1557 1560 1562 1563 1565 1566 1568 1568 1569 1570 1570 1570 1570 1569 1570 1569 1569 1568 1567 1566 1565 1564 1562 1560
1524 1529 1530 1531 1532 1533 1534 1535 1537 1541 1543 1543 1544 1547 1545 1546 1549 1551 1552 1554 1555 1558 1560 1562 1564 1565 1566 1568 1568 1569 1569 1569 1569 1569 1569 1569 1568 1568 1568 1567 1565 1564 1562 1561
1526 1528 1530 1531 1532 1532 1537 1535 1536 1538 1540 1542 1542 1547 1540 1540 1544 1547 1550 1552 1553 1556 1558 1560 1562 1564 1565 1566 1567 1568 1569 1569 1569 1569 1569 1569 1569 1569 1567 1566 1565 1564 1562 1561
1527 1528 1529 1531 1531 1531 1534 1535 1536 1536 1537 1539 1539 1541 1536 1537 1540 1541 1545 1548 1551 1554 1556 1558 1560 1562 1564 1565 1566 1567 1568 1568 1568 1568 1568 1568 1568 1568 1567 1566 1565 1564 1562 1561
1527 1529 1529 1530 1532 1533 1535 1537 1537 1536 1535 1545 1537 1538 1537 1531 1531 1533 1539 1544 1548 1551 1554 1556 1559 1561 1562 1564 1565 1566 1567 1567 1567 1568 1568 1568 1567 1567 1566 1566 1565 1564 1562 1561
1529 1529 1530 1531 1533 1535 1533 1536 1545 1547 1546 1542 1535 1537 1532 1524 1527 1531 1535 1540 1544 1548 1551 1554 1556 1559 1560 1562 1563 1565 1566 1566 1566 1567 1567 1567 1567 1566 1566 1565 1564 1563 1562 1560
1528 1532 1529 1529 1528 1530 1531 1531 1540 1549 1547 1539 1537 1536 1525 1526 1529 1532 1534 1538 1542 1545 1548 1551 1554 1556 1558 1560 1562 1563 1564 1565 1566 1566 1567 1567 1566 1566 1565 1564 1563 1562 1561 1560
1524 1529 1527 1528 1528 1527 1531 1530 1528 1532 1536 1539 1532 1528 1524 1525 1528 1530 1533 1536 1539 1543 1546 1549 1551 1554 1556 1558 1560 1562 1563 1564 1565 1565 1565 1566 1565 1565 1564 1563 1562 1561 1560 1558
1519 1527 1527 1528 1529 1530 1527 1526 1530 1533 1542 1542 1535 1529 1523 1521 1522 1526 1530 1533 1536 1540 1543 1546 1549 1551 1554 1556 1558 1560 1561 1563 1563 1564 1564 1564 1564 1563 1563 1562 1561 1560 1559 1558
1518 1522 1528 1527 1526 1526 1529 1530 1528 1528 1529 1536 1537 1527 1512 1514 1517 1521 1525 1529 1533 1536 1540 1543 1546 1549 1551 1554 1556 1558 1559 1561 1561 1562 1562 1562 1562 1562 1561 1561 1560 1559 1558 1557
1517 1517 1522 1522 1522 1522 1522 1522 1524 1531 1530 1528 1529 1525 1511 1514 1516 1519 1522 1526 1530 1534 1537 1540 1543 1546 1549 1551 1554 1556 1557 1559 1559 1560 1561 1561 1561 1560 1560 1560 1559 1558 1557 1556
1517 1518 1524 1527 1528 1525 1523 1521 1521 1521 1523 1525 1529 1522 1511 1513 1516 1518 1521 1524 1527 1531 1534 1538 1540 1543 1546 1549 1551 1553 1555 1556 1557 1558 1559 1559 1559 1559 1559 1558 1557 1557 1556 1555
1517 1513 1517 1524 1517 1515 1519 1520 1521 1521 1522 1521 1519 1514 1508 1510 1512 1515 1518 1521 1524 1528 1531 1534 1537 1540 1543 1546 1548 1551 1552 1554 1555 1556 1557 1557 1558 1557 1557 1556 1555 1555 1554 1553
1516 1512 1511 1511 1511 1513 1514 1515 1517 1518 1513 1514 1510 1508 1506 1505 1508 1512 1515 1518 1521 1524 1527 1530 1533 1537 1540 1543 1545 1548 1550 1551 1552 1553 1554 1555 1555 1555 1554 1554 1553 1553 1552 1550
1513 1511 1511 1512 1512 1513 1513 1511 1511 1512 1510 1509 1507 1506 1501 1503 1506 1509 1512 1514 1517 1520 1523 1526 1530 1533 1536 1539 1542 1544 1546 1548 1549 1551 1552 1552 1552 1552 1552 1552 1551 1550 1549 1548
1510 1510 1512 1511 1510 1513 1512 1502 1503 1504 1503 1503 1504 1499 1498 1501 1503 1505 1508 1510 1512 1515 1519 1522 1525 1528 1532 1535 1538 1541 1543 1545 1547 1548 1549 1549 1550 1550 1550 1549 1549 1548 1547 1546
1508 1508 1509 1510 1513 1520 1499 1497 1498 1499 1498 1497 1497 1496 1498 1500 1502 1504 1505 1507 1509 1512 1515 1518 1521 1525 1528 1532 1534 1537 1540 1542 1543 1545 1546 1546 1546 1547 1547 1546 1546 1545 1545 1543
1508 1508 1510 1510 1512 1505 1496 1495 1498 1499 1495 1494 1494 1495 1498 1500 1501 1501 1502 1504 1506 1509 1512 1515 1518 1521 1525 1528 1531 1534 1536 1538 1540 1541 1542 1543 1543 1544 1544 1544 1543 1543 1542 1541
1511 1509 1508 1510 1513 1511 1496 1495 1497 1498 1496 1492 1493 1494 1497 1499 1497 1497 1499 1501 1503 1506 1509 1512 1515 1518 1521 1524 1527 1530 1532 1534 1536 1537 1539 1540 1540 1540 1541 1541 1540 1540 1539 1538
1507 1508 1508 1507 1507 1497 1492 1496 1498 1500 1494 1493 1493 1494 1495 1496 1495 1497 1497 1499 1501 1503 1506 1509 1512 1515 1518 1521 1523 1526 1528 1530 1532 1534 1535 1536 1536 1537 1537 1537 1537 1536 1536 1534
1498 1501 1502 1502 1506 1501 1495 1495 1495 1493 1493 1493 1493 1494 1495 1495 1495 1495 1496 1497 1499 1501 1504 1506 1509 1512 1514 1517 1520 1522 1524 1526 1528 1530 1531 1532 1533 1533 1533 1533 1533 1533 1532 1531
1495 1494 1493 1494 1494 1494 1495 1495 1495 1494 1494 1493 1493 1493 1494 1494 1494 1495 1496 1497 1498 1500 1502 1504 1506 1509 1511 1513 1516 1518 1520 1522 1524 1525 1526 1528 1529 1529 1529 1530 1529 1529 1528 1527
1492 1496 1495 1493 1490 1493 1494 1494 1494 1494 1493 1493 1492 1492 1492 1493 1493 1494 1495 1496 1497 1499 1500 1502 1504 1505 1507 1509 1512 1514 1516 1518 1519 1521 1522 1523 1524 1525 1525 1525 1525 1524 1524 1523
1491 1494 1492 1490 1490 1491 1491 1492 1492 1492 1492 1491 1491 1491 1491 1492 1492 1493 1493 1495 1496 1497 1498 1499 1501 1502 1504 1506 1508 1510 1512 1514 1515 1517 1518 1519 1520 1520 1520 1520 1520 1519 1519 1518
1491 1491 1490 1487 1488 1489 1489 1490 1490 1490 1490 1490 1489 1489 1490 1490 1491 1491 1492 1493 1494 1495 1496 1497 1498 1499 1501 1503 1504 1506 1508 1509 1511 1513 1514 1514 1515 1515 1515 1515 1514 1513 1513 1512